Back to catalog

STARLINK-5316

AliveCommunicationsVLEO
NORAD 55305·PAYLOAD·🇺🇸 United States

Launched Jan 19, 2023 from Vandenberg Space Force Base

Loading…

Next Passes (next 24 hours)

TLE

FreshSource: CelesTrak SupGP

Epoch: Sep 14, 2026, 14:51 UTC

1 55305C 23010AN  26257.61923611 -.00050114  00000+0 -41998-2 0  2577
2 55305  69.9993 268.2821 0003643 273.2988 112.6634 14.98353871    12

Track STARLINK-5316 in real time with AllMySat

Download on the App Store